Regional Weather Roundup
Issued by NWS

Home | Current Version | Previous Version | Text Only | Print | Product List | Glossary Off
Versions: 1 2 3 4 5 6 7 8 9 10 11 12 13 14 15 16 17 18 19 20 21 22 23 24 25 26 27 28 29 30 31 32 33 34 35 36 37 38 39 40 41 42 43 44 45 46 47 48 49 50

000
ASUS45 KCYS 240410
RWRWY

WYOMING REGIONAL WEATHER ROUNDUP
NATIONAL WEATHER SERVICE CHEYENNE WY
1000 PM MDT SAT MAY 23 2015

NOTE:  "FAIR" INDICATES FEW OR NO CLOUDS BELOW 12,000 FEET
WITH NO SIGNIFICANT WEATHER AND/OR OBSTRUCTIONS TO VISIBILITY.

WYZ001-240500-
YELLOWSTONE NATIONAL PARK

CITY           SKY/WX    TMP DP  RH WIND       PRES   REMARKS
LK YELLOWSTONE   N/A     40  34  79 N5        30.11R
W YELLOWSTONE  NOT AVBL

$$
WYZ002>013-054>058-071-098>099-240500-
NORTHERN WYOMING

CITY           SKY/WX    TMP DP  RH WIND       PRES   REMARKS
JACKSON        CLOUDY    46  43  87 N8        30.02R
CODY           CLOUDY    48  43  81 NW10      30.04R
GREYBULL       CLOUDY    55  46  71 SE20G26   29.98R
WORLAND        LGT RAIN  50  47  89 W5        30.00S
SHERIDAN       CLOUDY    51  48  89 W7        30.05R
BUFFALO        CLOUDY    48  47  96 NW8       30.06R
GILLETTE       MOCLDY    51  47  86 N6        30.03R
HULETT         CLOUDY    50  48  93 E13       30.05S
NEWCASTLE      LGT RAIN  52  50  93 MISG      30.02R

$$
WYZ014>020-022>026-101>103-240500-
CENTRAL WYOMING

CITY           SKY/WX    TMP DP  RH WIND       PRES   REMARKS
BIG PINEY      FAIR      44  39  82 E7        30.02R
PINEDALE       CLOUDY    43  41  93 CALM      30.03R
DUBOIS         DRIZZLE   39  37  93 SE8       30.06R WCI  34
LANDER         CLOUDY    47  42  83 W7        30.02R
RIVERTON       LGT RAIN  49  44  83 CALM      30.03R
CASPER         LGT RAIN  46  43  89 N14       30.01R
DOUGLAS        LGT RAIN  47  46  97 SE3       30.00S

$$
WYZ021-027>030-104>119-240500-
SOUTHERN WYOMING

CITY           SKY/WX    TMP DP  RH WIND       PRES   REMARKS
EVANSTON       MOCLDY    42  37  82 SW6       30.02R
KEMMERER       FAIR      41  36  81 N7        30.02R
FORT BRIDGER   CLEAR     45  43  93 W8        30.03R
ROCK SPRINGS   MOCLDY    44  37  76 NE21G29   30.01R
DIXON          CLOUDY    46  39  76 CALM      30.03S
RAWLINS        CLOUDY    44  41  89 W6        30.01S
SARATOGA       CLOUDY    41  37  87 SE9       30.02F
LARAMIE        LGT RAIN  40  40 100 NW14      29.99R WCI  32
CHEYENNE       CLOUDY    46  44  93 SE5       29.97R
TORRINGTON     LGT RAIN  54  52  93 CALM      29.93S
PINE BLUFFS    CLOUDY    46  45  93 SW3       29.96R

$$



USA.gov is the U.S. government's official web portal to all federal, state and local government web resources and services.